Track FLOCK 4EP 2 now! 10-day predictions FLOCK 4EP 2 is classified as:
1 46820U 20077H 21059.92346400 .00002237 00000-0 11458-3 0 9997 2 46820 97.4872 125.0997 0013459 223.4685 239.7812 15.17561606 18654